Doha, Qatar

11:19 PM +03 on November 17, 2017 (GMT +0300)
Doha International

Weather History for OTBD - October, 2014

Change the Weather History Date:

Thursday, October 2, 2014

  Actual Average Record
Temperature  
Mean Temperature 91 °F -  
Max Temperature 100 °F 94 °F 105 °F (2015)
Min Temperature 82 °F 74 °F 77 °F (2004)
Cooling Degree Days 26    
Growing Degree Days 41 (Base 50)    
Moisture  
Dew Point 76 °F    
Average Humidity 59    
Maximum Humidity 79    
Minimum Humidity 38    
Precipitation  
Precipitation 0.00 in 0.00 in - ()
Sea Level Pressure  
Sea Level Pressure 29.86 in    
Wind  
Wind Speed 4 mph ()    
Max Wind Speed 13 mph    
Max Gust Speed -    
Visibility 7.1 miles    
Events      
Averages and records for this station are not official NWS values.
T = Trace of Precipitation, MM = Missing Value Source: Averaged Metar Reports

Daily Weather History Graph

Daily Weather History Graph

Search for Another Location

Airport or City:

Trip Planner

Search our weather history database for the weather conditions in past years. The results will help you decide how hot, cold, wet, or windy it might be!

Date:

Astronomy

Oct. 02, 2014 Rise Set
Actual Time 5:26 AM +03 5:19 PM +03
Civil Twilight 5:03 AM +03 5:42 PM +03
Nautical Twilight 4:36 AM +03 6:09 PM +03
Astronomical Twilight 4:10 AM +03 6:35 PM +03
Moon 12:34 PM +03 (10/2) 11:53 PM +03 (10/2)
Length of Visible Light 12h 39m
Length of Day
11h 53m
First Quarter, 56% of the Moon is Illuminated
Oct 2
First Quarter
Oct 8
Full
Oct 15
Last Quarter
Oct 24
New
Oct 31
First Quarter

Hourly Weather History & Observations

Time (+03) Temp. Heat Index Dew Point Humidity Pressure Visibility Wind Dir Wind Speed Gust Speed Precip Events Conditions
12:00 AM 87 °F - 74 °F 58% 29.86 in 9 mi NNE 3.5 mph - -  
12:00 AM 87.8 °F 97.6 °F 75.2 °F 66% 29.83 in - NNE 3.5 mph - N/A   Clear
12:30 AM 86.0 °F 93.4 °F 73.4 °F 66% 29.83 in - NNE 3.5 mph - N/A   Clear
1:00 AM 86.0 °F 93.4 °F 73.4 °F 66% 29.83 in - North 3.5 mph - N/A   Clear
1:30 AM 86.0 °F 95.1 °F 75.2 °F 70% 29.83 in - North 2.3 mph - N/A   Clear
2:00 AM 86.0 °F 95.1 °F 75.2 °F 70% 29.83 in - Variable 2.3 mph - N/A   Clear
2:30 AM 86.0 °F 96.9 °F 77.0 °F 74% 29.83 in - Calm Calm - N/A   Clear
3:00 AM 87.8 °F 102.5 °F 78.8 °F 75% 29.80 in - Variable 1.2 mph - N/A   Clear
3:30 AM 86.0 °F 96.9 °F 77.0 °F 74% 29.83 in - Calm Calm - N/A   Clear
4:00 AM 86.0 °F 96.9 °F 77.0 °F 74% 29.86 in - Calm Calm - N/A   Clear
5:00 AM 86.0 °F 96.9 °F 77.0 °F 74% 29.86 in - Calm Calm - N/A   Clear
5:30 AM 84.2 °F 90.9 °F 73.4 °F 70% 29.86 in 5.6 mi Variable 1.2 mph - N/A   Unknown
6:00 AM 83 °F - 75 °F 70% 29.89 in 6 mi Calm Calm - -   Smoke
6:00 AM 84.2 °F 92.3 °F 75.2 °F 74% 29.89 in 5.6 mi Calm Calm - N/A   Unknown
6:30 AM 84.2 °F 94.1 °F 77.0 °F 79% 29.89 in - Calm Calm - N/A   Clear
7:00 AM 87.8 °F 99.7 °F 77.0 °F 70% 29.89 in - Calm Calm - N/A   Clear
7:30 AM 91.4 °F 107.2 °F 78.8 °F 66% 29.89 in 6.2 mi NNE 3.5 mph - N/A   Partly Cloudy
8:00 AM 93.2 °F 107.2 °F 77.0 °F 59% 29.89 in 6.2 mi East 4.6 mph - N/A   Partly Cloudy
8:30 AM 93.2 °F 105.0 °F 75.2 °F 56% 29.92 in - SSE 4.6 mph - N/A   Clear
9:00 AM 96 °F - 73 °F 38% 29.93 in 9 mi South 4.6 mph - -  
9:00 AM 95.0 °F 104.5 °F 73.4 °F 49% 29.92 in - South 4.6 mph - N/A   Clear
9:30 AM 96.8 °F 109.6 °F 75.2 °F 50% 29.92 in - South 4.6 mph - N/A   Clear
10:00 AM 98.6 °F 107.7 °F 71.6 °F 42% 29.92 in - South 5.8 mph - N/A   Clear
10:30 AM 98.6 °F 109.2 °F 73.4 °F 44% 29.89 in - South 3.5 mph - N/A   Clear
11:00 AM 98.6 °F 120.3 °F 80.6 °F 56% 29.89 in 6.2 mi East 9.2 mph - N/A   Partly Cloudy
11:30 AM 98.6 °F 114.4 °F 77.0 °F 50% - 6.2 mi ESE 6.9 mph - N/A   Partly Cloudy
12:00 PM 98 °F - 77 °F 43% 29.88 in 7 mi East 12.7 mph - -   Scattered Clouds
12:00 PM 96.8 °F 112.2 °F 77.0 °F 53% 29.86 in 6.2 mi East 12.7 mph - N/A   Partly Cloudy
12:30 PM 98.6 °F 105.5 °F 69.8 °F 39% 29.86 in 6.2 mi East 11.5 mph - N/A   Partly Cloudy
1:00 PM 98.6 °F 114.4 °F 77.0 °F 50% 29.86 in 6.2 mi East 11.5 mph - N/A   Partly Cloudy
1:30 PM 96.8 °F 112.2 °F 77.0 °F 53% 29.83 in - East 11.5 mph - N/A   Clear
2:00 PM 96.8 °F 109.6 °F 75.2 °F 50% 29.83 in - East 9.2 mph - N/A   Clear
3:00 PM 96 °F - 77 °F 46% 29.84 in 10 mi East 8.1 mph - -  
3:00 PM 95.0 °F 109.7 °F 77.0 °F 56% 29.83 in 6.2 mi East 10.4 mph - N/A   Partly Cloudy
4:00 PM 95.0 °F 101.3 °F 69.8 °F 44% 29.83 in - NNE 10.4 mph - N/A   Clear
5:00 PM 93.2 °F 102.4 °F 73.4 °F 52% 29.83 in - NE 9.2 mph - N/A   Clear
6:00 PM 93 °F - 75 °F 47% 29.86 in 10 mi NE 5.8 mph - -  
6:00 PM 93.2 °F 105.0 °F 75.2 °F 56% 29.86 in - NE 5.8 mph - N/A   Clear
7:00 PM 91.4 °F 102.5 °F 75.2 °F 59% 29.86 in - NE 3.5 mph - N/A   Clear
8:00 PM 91.4 °F 105.1 °F 77.0 °F 63% 29.89 in - Variable 2.3 mph - N/A   Clear
9:00 PM 90 °F - 77 °F 58% 29.89 in 9 mi Calm Calm - -  
9:00 PM 89.6 °F 102.2 °F 77.0 °F 66% 29.89 in - Calm Calm - N/A   Clear
10:00 PM 89.6 °F 102.2 °F 77.0 °F 66% 29.86 in - East 2.3 mph - N/A   Clear
10:30 PM 89.6 °F 102.2 °F 77.0 °F 66% 29.86 in - Calm Calm - N/A   Clear
11:00 PM 89.6 °F 102.2 °F 77.0 °F 66% 29.86 in - North 3.5 mph - N/A   Clear